OpenBCM V1.07b12 (Linux)

Packet Radio Mailbox

SR1BSZ

[Szczecin_PL JO73GK]

 Login: GUEST





  
I0OJJ  > KEPS     15.12.25 03:00z 328 Lines 15613 Bytes #12 (0) @ AMSAT
BID : ORB25349.1
Read: GUEST
Subj: 2Line Orbital Elements 25349.AMSAT
Path: SR1BSZ<EA2RCF<I0OJJ
Sent: 251215/0021z @:I0OJJ.ITA.EU [Rome] obcm1.08-11-2-gbfe9
From: I0OJJ @ I0OJJ.ITA.EU (Gustavo)
To:   KEPS @ AMSAT
X-Info: This message was generated automatically


QST de W1STR

AMSAT Orbital Elements for Amateur Satellites in TLE Format
From Orbital Analysis Office
New England Sci-Tech STEM Education Center
Natick MA December 15, 2025
To all radio amateurs


These element sets describe the orbits of various satellites 
in use by the amateur radio community. For details see:
www.amsat.org/keplerian-elements-formats/

A daily update of element sets is available at:
www.amsat.org/tle/daily-bulletin.txt
or without bulletin text:
www.amsat.org/tle/dailytle.txt


AO-07
1 07530U 74089B   25348.32063488 -.00000025  00000-0  13119-3 0  9995
2 07530 101.9966 354.6050 0012375 123.6669 250.4635 12.53694194337353
UO-11
1 14781U 84021B   25348.33780495  .00001989  00000-0  21111-3 0  9993
2 14781  97.7811 311.3415 0009289  77.7536 282.4721 14.90150197229597
AO-27
1 22825U 93061C   25348.18739127  .00000176  00000-0  84017-4 0  9996
2 22825  98.7145  50.4581 0007325 284.8658  75.1713 14.30877362680544
FO-29
1 24278U 96046B   25348.25173106 -.00000029  00000-0  79703-5 0  9998
2 24278  98.5461 217.1843 0349214 216.0465 141.6667 13.53262922448159
GO-32
1 25397U 98043D   25347.90094553  .00000146  00000-0  83392-4 0  9996
2 25397  98.9921 331.1398 0002026  55.4203 304.7166 14.24377408424954
ISS
1 25544U 98067A   25348.21787239  .00012052  00000-0  22198-3 0  9996
2 25544  51.6305 135.1599 0003264 246.9077 113.1568 15.49586484543084
NO-44
1 26931U 01043C   25348.27290776  .00000271  00000-0  13229-3 0  9991
2 26931  67.0515   2.5137 0007428 269.8496  90.1755 14.31855849263972
SO-50
1 27607U 02058C   25348.28963521  .00002628  00000-0  33096-3 0  9997
2 27607  64.5543 340.8085 0072296 296.3156  63.0536 14.82399197237049
CO-55
1 27844U 03031E   25348.27613775  .00000507  00000-0  23886-3 0  9994
2 27844  98.6765 354.1593 0009711   9.0596 351.0757 14.24180797165356
CO-57
1 27848U 03031J   25347.96224071  .00000433  00000-0  20957-3 0  9994
2 27848  98.6792 353.7104 0009935  27.4415 332.7286 14.23488271165029
RS-22
1 27939U 03042A   25348.35119626  .00001675  00000-0  26897-3 0  9998
2 27939  98.3368 162.5940 0012190 130.8588 347.4266 14.72977499188336
CO-58
1 28895U 05043F   25348.34508436  .00002428  00000-0  39530-3 0  9998
2 28895  98.2718 135.4498 0015342  73.5062 286.7829 14.71908884 74554
CO-65
1 32785U 08021C   25348.23224500  .00007023  00000-0  47205-3 0  9999
2 32785  97.8077 321.3419 0007894 304.4990  55.5491 15.07067785957315
CO-66
1 32791U 08021J   25347.95320282  .00018733  00000-0  74560-3 0  9992
2 32791  97.7441 333.1406 0001457 198.6890 161.4294 15.25310297958985
RS-30
1 32953U 08025A   25348.32015266  .00000076  00000-0  47214-3 0  9998
2 32953  82.5018 110.4398 0018961 357.6202   2.4785 12.43172296796728
SRMSAT
1 37841U 11058D   25348.35795935  .00000479  00000-0  11649-3 0  9990
2 37841  19.9714  98.1565 0011795 331.3293  63.8110 14.11512094731678
ZACUBE-1
1 39417U 13066B   25348.32710162  .00005124  00000-0  41909-3 0  9992
2 39417  97.8060 304.8748 0041948 141.9606 218.4592 14.99105726653013
Delfi-N3xt
1 39428U 13066N   25348.28398823  .00007874  00000-0  73713-3 0  9997
2 39428  97.8341 264.1753 0080861 100.3385 260.6962 14.91854521647021
GOMX-1
1 39430U 13066Q   25348.33249398  .00003591  00000-0  55187-3 0  9995
2 39430  97.6594 195.3585 0129595 311.4596  47.5538 14.68596580642777
LO-74
1 39440U 13066AA  25348.34875202  .00005436  00000-0  52503-3 0  9995
2 39440  97.8708 292.0182 0057916 280.4037  79.0657 14.91994712649412
AO-73
1 39444U 13066AE  25347.85101564  .00010449  00000-0  70805-3 0  9992
2 39444  97.8061 311.1428 0040478 112.1902 248.3627 15.05982595651739
DTUSAT-2
1 40030U 14033W   25348.25824321  .00009067  00000-0  53491-3 0  9994
2 40030  98.0752 329.8104 0009463 135.5678 224.6312 15.11766619624717
EO-80
1 40032U 14033Y   25347.93788881  .00009444  00000-0  55564-3 0  9992
2 40032  98.0640 328.8638 0009979  86.5477 273.6893 15.11845204624648
LILACSAT-2
1 40908U 15049K   25348.29086903  .00017841  00000-0  38243-3 0  9993
2 40908  97.4919  13.7208 0007335 191.1761 168.9325 15.44783910567146
IO-86
1 40931U 15052B   25151.18580175  .00001241  00000-0  78118-4 0  9996
2 40931   6.0006  24.0987 0012733 338.8432  21.1169 14.78805930523159
Horyu-4
1 41340U 16012D   25348.22807087  .00057938  00000-0  96262-3 0  9998
2 41340  30.9945 299.7613 0006956 247.3568 112.6346 15.50756795541780
Lapan A3
1 41603U 16040E   25348.26284968  .00005090  00000-0  16922-3 0  9999
2 41603  97.1430 345.7639 0009486 328.0062  32.0603 15.31568458526491
CAS-2T
1 41847U 16066G   25348.21658955  .00001494  00000-0  22051-3 0  9997
2 41847  98.4035  60.9423 0343140 330.6776  27.5534 14.44135064478092
TechnoSat
1 42829U 17042E   25348.32581899  .00004870  00000-0  36083-3 0  9998
2 42829  97.4046 148.4631 0018346   8.5948 351.5589 15.03431581458914
AO-91
1 43017U 17073E   25348.17003183  .00012010  00000-0  56805-3 0  9999
2 43017  97.4956 214.3338 0159326 245.4965 112.9580 15.08903713437458
S-Net D
1 43186U 18014G   25348.27377190  .00007582  00000-0  41650-3 0  9995
2 43186  97.5487 249.3493 0007197 307.6329  52.4249 15.14378906430751
S-Net B
1 43187U 18014H   25348.21577643  .00007831  00000-0  43031-3 0  9997
2 43187  97.5491 249.2719 0007819 301.2216  58.8249 15.14353089430747
S-Net A
1 43188U 18014J   25348.27347336  .00007575  00000-0  41598-3 0  9999
2 43188  97.5500 249.5062 0007667 302.2004  57.8484 15.14385396430757
S-Net C
1 43189U 18014K   25348.28482208  .00007736  00000-0  42510-3 0  9993
2 43189  97.5512 249.5629 0008985 291.9180  68.1096 15.14348922429300
Ten-Koh
1 43677U 18084G   25348.24405576  .00003844  00000-0  29945-3 0  9994
2 43677  98.0745 167.9249 0009315  20.2087 339.9503 15.01831189388397
PO-101
1 43678U 18084H   25348.32038787  .00003977  00000-0  32952-3 0  9999
2 43678  98.1027 171.8465 0007641  42.5647 317.6166 14.99447391388500
QO-100
1 43700U 18090A   25348.20756304  .00000162  00000-0  00000-0 0  9990
2 43700   0.0174 337.8893 0000989 293.5357 272.2474  1.00269384 25827
MinXSS-2
1 43758U 18099A   25348.18982334  .00028274  00000-0  84213-3 0  9998
2 43758  97.4799  55.5738 0009042 206.4503 153.6280 15.34617987385644
AO-95
1 43770U 18099N   25348.10790118  .00014042  00000-0  61823-3 0  9991
2 43770  97.4683  44.3801 0008281 280.7175  79.3129 15.21924322385029
SNUSat 2
1 43782U 18099AA  25348.10869085  .00010705  00000-0  52417-3 0  9995
2 43782  97.4358  39.4918 0010139 217.4203 142.6327 15.18306999384910
SnugLite
1 43784U 18099AC  25348.09470296  .00014507  00000-0  63171-3 0  9990
2 43784  97.4172  39.5296 0002406 195.1882 164.9282 15.22318959385113
ITASat 1
1 43786U 18099AE  25348.14997593  .00008866  00000-0  46274-3 0  9998
2 43786  97.4331  38.4318 0011842 278.2162  81.7728 15.16101418384846
EAGLET 1
1 43790U 18099AJ  25348.09541276  .00006548  00000-0  39390-3 0  9996
2 43790  97.4527  37.5978 0010141 264.6407  95.3666 15.11131139384369
ESEO
1 43792U 18099AL  25348.34557149  .00002677  00000-0  20050-3 0  9994
2 43792  97.4223  28.4641 0011258 242.2609 117.7476 15.03484170384024
JO-97
1 43803U 18099AX  25348.12633439  .00018334  00000-0  69538-3 0  9991
2 43803  97.4428  45.9382 0005958 197.0299 163.0741 15.26902019385327
Suomi 100
1 43804U 18099AY  25348.10071326  .00015063  00000-0  63527-3 0  9999
2 43804  97.4489  44.5504 0010328 207.0071 153.0629 15.23354390385192
ISAT
1 43879U 18111D   25348.29445968  .00039841  00000-0  93383-3 0  9996
2 43879  97.5904 268.0546 0003510 241.7186 118.3707 15.41973604382488
UWE-4
1 43880U 18111E   25348.32887303  .00027508  00000-0  82276-3 0  9991
2 43880  97.5854 264.8968 0007250 269.8517  90.1895 15.34506849382323
Sparrow
1 43881U 18111F   25348.27676200  .00049984  00000-0  10832-2 0  9998
2 43881  97.6088 271.8003 0002642 322.6453  37.4610 15.44266970382608
Prox-1
1 44339U 19036A   25348.11880570  .00014347  00000-0  16012-2 0  9995
2 44339  23.9959 265.6376 0006486  58.0721 302.0407 14.85227908345873
Taurus 1
1 44530U 19059C   25348.33771493  .00008041  00000-0  13730-2 0  9998
2 44530  98.6224 137.2782 0009083 169.5637 190.5757 14.69187606331476
Duchifat 3
1 44854U 19089C   25342.89580904  .10801921  36355-5  10723-2 0  9995
2 44854  36.9163 249.0625 0006835 253.5286 106.4749 16.36980482331539
TO-108
1 44881U 19093C   25348.31646575  .00001868  00000-0  21894-3 0  9996
2 44881  97.7758  59.9127 0013201 341.3810  18.6921 14.86111276323956
FloripaSat 1
1 44885U 19093G   25348.31012579  .00009922  00000-0  77451-3 0  9990
2 44885  97.8040  76.5101 0010323 332.0978  27.9691 15.01301005324885
RS-44
1 44909U 19096E   25348.34316167  .00000014  00000-0  15527-4 0  9993
2 44909  82.5211 102.5432 0217096 216.3301 142.2897 12.79746116278706
SALSAT
1 46495U 20068K   25347.97394729  .00010073  00000-0  39011-3 0  9993
2 46495  97.8786 335.3129 0008978 224.0796 135.9726 15.26353387287073
CSS (TIANHE-1)
1 48274U 21035A   25348.31596000  .00025793  00000-0  32168-3 0  9991
2 48274  41.4685   7.1390 0008065  44.1445 316.0035 15.59258965264270
TUBIN
1 48900U 21059X   25348.19418524  .02536687  26308-5  77840-3 0  9994
2 48900  97.6622 176.9739 0005151 263.3019  96.7686 16.26776022249560
CUTE
1 49263U 21088D   25348.18737839  .00028630  00000-0  37298-3 0  9992
2 49263  97.4345  71.1007 0004415 264.2154  95.8599 15.58691122233522
TeikyoSat 4
1 49396U 21102B   25348.06129589  .00002510  00000-0  16397-3 0  9996
2 49396  97.3901  19.6114 0011513 203.5588 156.5115 15.08649162224808
Z-Sat
1 49399U 21102E   25348.36083600  .00005895  00000-0  30513-3 0  9990
2 49399  97.3589  24.2551 0017457 166.4497 193.7209 15.16458689225415
